Location: *
(37.5724°S, 58.0067°E)
Time: 19:05:16
(UTC+00:00)

N. Korean satellite - Pass Details

Date: 07 December 2020
Orbit: 453 x 502 km, 97.2° (Epoch: 16 January)

Event Time Altitude Azimuth Distance (km) Brightness Sun altitude
Rises 23:50:34 0° 53° (NE) 2,588 10.5 -8.9°
Reaches altitude 10° 23:53:23 10° 77° (ENE) 1,708 9.9 -8.5°
Maximum altitude 23:55:28 15° 112° (ESE) 1,439 10.3 -8.2°
Drops below altitude 10° 23:57:33 10° 146° (SE) 1,709 10.7 -7.8°
Sets 00:00:21 0° 170° (S) 2,590 11.0 -7.4°
